TIANMU-1 15

Last updated on Wed Sep 17 2025 00:02:23 GMT+0000 (Coordinated Universal Time)

1 58700U 24004A 25259.58213709 .00006807 00000+0 29253-3 0 9992 2 58700 97.4679 81.4467 0005529 229.3158 130.7598 15.22980561 94077
UTC large
Height (km)
Speed (km/s)
/
Latitude / Longitude
Inclination (degrees)
Orbital Period (minutes)
Azimuth
Elevation
Range (km)
Doppler Factor

Next 0 passes for location: London (51.5072 / 0.1276)

Sorry there are no passes over London.